Time,TemperatureF,DewpointF,PressureIn,WindDirection,WindDirectionDegrees,WindSpeedMPH,WindSpeedGustMPH,Humidity,HourlyPrecipIn,Conditions,Clouds,dailyrainin,SoftwareType,DateUTC
2013-02-27 00:00:00,63.1,61.3,29.85,WSW,253,0.0,0.0,94,0.00,,,0.09,Wunderground v.1.15,2013-02-27 05:00:00,
2013-02-27 00:05:00,63.0,61.2,29.85,WSW,253,0.0,0.0,94,0.00,,,0.00,Wunderground v.1.15,2013-02-27 05:05:00,
2013-02-27 00:10:00,63.0,61.2,29.85,WSW,253,0.0,0.0,94,0.00,,,0.00,Wunderground v.1.15,2013-02-27 05:10:00,
2013-02-27 00:15:00,62.8,61.0,29.85,WSW,253,0.0,0.0,94,0.00,,,0.00,Wunderground v.1.15,2013-02-27 05:15:00,
2013-02-27 00:25:00,62.5,60.7,29.85,WSW,253,0.0,0.0,94,0.00,,,0.00,Wunderground v.1.15,2013-02-27 05:25:00,
2013-02-27 00:30:00,62.4,60.7,29.85,WSW,253,0.0,0.0,94,0.00,,,0.00,Wunderground v.1.15,2013-02-27 05:30:00,
2013-02-27 00:35:00,62.2,60.5,29.86,WSW,253,0.0,0.0,94,0.00,,,0.00,Wunderground v.1.15,2013-02-27 05:35:00,
2013-02-27 00:40:00,62.0,60.3,29.86,WSW,253,0.0,0.0,94,0.00,,,0.00,Wunderground v.1.15,2013-02-27 05:40:00,
2013-02-27 00:45:00,61.8,60.1,29.86,WSW,253,0.0,0.0,94,0.00,,,0.00,Wunderground v.1.15,2013-02-27 05:45:00,
2013-02-27 00:50:00,61.5,59.8,29.86,WSW,253,0.0,0.0,94,0.00,,,0.00,Wunderground v.1.15,2013-02-27 05:50:00,
2013-02-27 00:55:00,61.4,59.7,29.86,WSW,253,0.0,0.0,94,0.00,,,0.00,Wunderground v.1.15,2013-02-27 05:55:00,
2013-02-27 01:00:00,61.4,59.7,29.86,WSW,253,0.0,0.0,94,0.00,,,0.00,Wunderground v.1.15,2013-02-27 06:00:00,
2013-02-27 01:05:00,61.2,59.5,29.86,WSW,253,0.0,0.0,94,0.00,,,0.00,Wunderground v.1.15,2013-02-27 06:05:00,
2013-02-27 01:10:00,60.8,59.1,29.86,WSW,253,0.0,0.0,94,0.00,,,0.00,Wunderground v.1.15,2013-02-27 06:10:00,
2013-02-27 01:15:00,60.4,58.7,29.86,WSW,253,0.0,0.0,94,0.00,,,0.00,Wunderground v.1.15,2013-02-27 06:15:00,
2013-02-27 01:20:00,60.0,58.3,29.86,WSW,253,0.0,0.0,94,0.00,,,0.00,Wunderground v.1.15,2013-02-27 06:20:00,
2013-02-27 01:25:00,59.8,58.1,29.86,WSW,253,0.0,0.0,94,0.00,,,0.00,Wunderground v.1.15,2013-02-27 06:25:00,
2013-02-27 01:30:00,59.6,57.9,29.86,WSW,253,0.0,0.0,94,0.00,,,0.00,Wunderground v.1.15,2013-02-27 06:30:00,
2013-02-27 01:40:00,59.4,57.7,29.86,WSW,253,0.0,0.0,94,0.00,,,0.00,Wunderground v.1.15,2013-02-27 06:40:00,
2013-02-27 01:45:00,59.0,57.3,29.86,WSW,253,0.0,0.0,94,0.00,,,0.00,Wunderground v.1.15,2013-02-27 06:45:00,
2013-02-27 01:55:00,59.0,57.6,29.86,WSW,253,0.0,0.0,95,0.00,,,0.00,Wunderground v.1.15,2013-02-27 06:55:00,
2013-02-27 02:00:00,58.9,57.5,29.86,WSW,253,0.0,0.0,95,0.00,,,0.00,Wunderground v.1.15,2013-02-27 07:00:00,
2013-02-27 02:05:00,58.9,57.5,29.85,WSW,253,0.0,0.0,95,0.00,,,0.00,Wunderground v.1.15,2013-02-27 07:05:00,
2013-02-27 02:10:00,58.7,57.3,29.86,WSW,253,0.0,0.0,95,0.00,,,0.00,Wunderground v.1.15,2013-02-27 07:10:00,
2013-02-27 02:15:00,58.4,57.0,29.86,WSW,253,0.0,0.0,95,0.00,,,0.00,Wunderground v.1.15,2013-02-27 07:15:00,
2013-02-27 02:20:00,58.1,56.4,29.86,WSW,253,0.0,0.0,94,0.00,,,0.00,Wunderground v.1.15,2013-02-27 07:20:00,
2013-02-27 02:25:00,58.0,56.6,29.86,WSW,253,0.0,0.0,95,0.00,,,0.00,Wunderground v.1.15,2013-02-27 07:25:00,
2013-02-27 02:30:00,58.5,57.1,29.85,WSW,253,0.0,0.0,95,0.00,,,0.00,Wunderground v.1.15,2013-02-27 07:30:00,
2013-02-27 02:35:00,59.0,57.6,29.85,WSW,253,0.0,0.0,95,0.00,,,0.00,Wunderground v.1.15,2013-02-27 07:35:00,
2013-02-27 02:40:00,59.1,57.7,29.85,WSW,253,0.0,0.0,95,0.00,,,0.00,Wunderground v.1.15,2013-02-27 07:40:00,
2013-02-27 02:45:00,59.5,58.1,29.85,WSW,253,0.0,0.0,95,0.00,,,0.00,Wunderground v.1.15,2013-02-27 07:45:00,
2013-02-27 02:50:00,59.7,58.3,29.85,WSW,253,0.0,0.0,95,0.00,,,0.00,Wunderground v.1.15,2013-02-27 07:50:00,
2013-02-27 02:55:00,59.7,58.3,29.85,WSW,253,0.0,0.0,95,0.00,,,0.00,Wunderground v.1.15,2013-02-27 07:55:00,
2013-02-27 03:00:00,59.5,58.1,29.85,WSW,253,0.0,0.0,95,0.00,,,0.00,Wunderground v.1.15,2013-02-27 08:00:00,
2013-02-27 03:05:00,59.3,57.9,29.85,WSW,253,0.0,0.0,95,0.00,,,0.00,Wunderground v.1.15,2013-02-27 08:05:00,
2013-02-27 03:15:00,59.2,57.8,29.85,WSW,253,0.0,0.0,95,0.00,,,0.00,Wunderground v.1.15,2013-02-27 08:15:00,
2013-02-27 03:20:00,59.3,57.9,29.85,WSW,253,0.0,0.0,95,0.00,,,0.00,Wunderground v.1.15,2013-02-27 08:20:00,
2013-02-27 03:25:00,59.4,58.0,29.85,WSW,253,0.0,0.0,95,0.00,,,0.00,Wunderground v.1.15,2013-02-27 08:25:00,
2013-02-27 03:30:00,59.4,58.0,29.85,WSW,253,0.0,0.0,95,0.00,,,0.00,Wunderground v.1.15,2013-02-27 08:30:00,
2013-02-27 03:35:00,59.5,58.1,29.84,WSW,253,0.0,0.0,95,0.00,,,0.00,Wunderground v.1.15,2013-02-27 08:35:00,
2013-02-27 03:40:00,59.8,58.4,29.85,WSW,253,0.0,0.0,95,0.00,,,0.00,Wunderground v.1.15,2013-02-27 08:40:00,
2013-02-27 03:45:00,59.8,58.4,29.85,WSW,253,0.0,0.0,95,0.00,,,0.00,Wunderground v.1.15,2013-02-27 08:45:00,
2013-02-27 03:50:00,59.7,58.3,29.86,WSW,253,0.0,0.0,95,0.00,,,0.00,Wunderground v.1.15,2013-02-27 08:50:00,
2013-02-27 03:55:00,59.5,58.1,29.86,WSW,253,0.0,0.0,95,0.00,,,0.00,Wunderground v.1.15,2013-02-27 08:55:00,
2013-02-27 04:00:00,59.3,57.9,29.86,WSW,253,0.0,0.0,95,0.00,,,0.00,Wunderground v.1.15,2013-02-27 09:00:00,
2013-02-27 04:05:00,59.0,57.6,29.85,WSW,253,0.0,0.0,95,0.00,,,0.00,Wunderground v.1.15,2013-02-27 09:05:00,
2013-02-27 04:10:00,59.0,57.6,29.86,WSW,253,0.0,0.0,95,0.00,,,0.00,Wunderground v.1.15,2013-02-27 09:10:00,
2013-02-27 04:15:00,58.9,57.5,29.86,WSW,253,0.0,0.0,95,0.00,,,0.00,Wunderground v.1.15,2013-02-27 09:15:00,
2013-02-27 04:20:00,58.3,56.9,29.86,WSW,253,0.0,0.0,95,0.00,,,0.00,Wunderground v.1.15,2013-02-27 09:20:00,
2013-02-27 04:25:00,58.0,56.6,29.86,WSW,253,0.0,0.0,95,0.00,,,0.00,Wunderground v.1.15,2013-02-27 09:25:00,
2013-02-27 04:30:00,57.7,56.3,29.86,WSW,253,0.0,0.0,95,0.00,,,0.00,Wunderground v.1.15,2013-02-27 09:30:00,
2013-02-27 04:35:00,57.3,55.9,29.86,WSW,253,0.0,0.0,95,0.00,,,0.00,Wunderground v.1.15,2013-02-27 09:35:00,
2013-02-27 04:40:00,56.8,55.4,29.87,WSW,253,0.0,0.0,95,0.00,,,0.00,Wunderground v.1.15,2013-02-27 09:40:00,
2013-02-27 04:45:00,56.3,54.9,29.86,WSW,253,0.0,0.0,95,0.00,,,0.00,Wunderground v.1.15,2013-02-27 09:45:00,
2013-02-27 04:55:00,55.7,54.3,29.86,WSW,253,0.0,0.0,95,0.00,,,0.00,Wunderground v.1.15,2013-02-27 09:55:00,
2013-02-27 05:00:00,55.4,54.0,29.87,WSW,253,0.0,0.0,95,0.00,,,0.00,Wunderground v.1.15,2013-02-27 10:00:00,
2013-02-27 05:05:00,55.2,53.8,29.87,WSW,253,0.0,0.0,95,0.00,,,0.00,Wunderground v.1.15,2013-02-27 10:05:00,
2013-02-27 05:10:00,55.0,53.6,29.87,WSW,253,0.0,0.0,95,0.00,,,0.00,Wunderground v.1.15,2013-02-27 10:10:00,
2013-02-27 05:15:00,54.8,53.4,29.87,WSW,253,0.0,0.0,95,0.00,,,0.00,Wunderground v.1.15,2013-02-27 10:15:00,
2013-02-27 05:25:00,54.7,53.3,29.87,WSW,253,0.0,0.0,95,0.00,,,0.00,Wunderground v.1.15,2013-02-27 10:25:00,
2013-02-27 05:30:00,54.4,53.0,29.87,WSW,253,0.0,0.0,95,0.00,,,0.00,Wunderground v.1.15,2013-02-27 10:30:00,
2013-02-27 05:35:00,54.1,52.7,29.87,WSW,253,0.0,0.0,95,0.00,,,0.00,Wunderground v.1.15,2013-02-27 10:35:00,
2013-02-27 05:40:00,53.9,52.5,29.88,WSW,253,0.0,0.0,95,0.00,,,0.00,Wunderground v.1.15,2013-02-27 10:40:00,
2013-02-27 05:50:00,53.9,52.5,29.87,WSW,253,0.0,0.0,95,0.00,,,0.00,Wunderground v.1.15,2013-02-27 10:50:00,
2013-02-27 05:55:00,54.4,53.0,29.88,WSW,253,0.0,0.0,95,0.00,,,0.00,Wunderground v.1.15,2013-02-27 10:55:00,
2013-02-27 06:00:00,54.8,53.4,29.88,WSW,253,0.0,0.0,95,0.00,,,0.00,Wunderground v.1.15,2013-02-27 11:00:00,
2013-02-27 06:05:00,55.2,53.8,29.88,WSW,253,0.0,0.0,95,0.00,,,0.00,Wunderground v.1.15,2013-02-27 11:05:00,
2013-02-27 06:15:00,56.0,54.6,29.88,WSW,253,0.0,0.0,95,0.00,,,0.00,Wunderground v.1.15,2013-02-27 11:15:00,
2013-02-27 06:20:00,56.2,54.8,29.88,WSW,253,0.0,0.0,95,0.00,,,0.00,Wunderground v.1.15,2013-02-27 11:20:00,
2013-02-27 06:25:00,56.4,55.0,29.88,WSW,253,0.0,0.0,95,0.00,,,0.00,Wunderground v.1.15,2013-02-27 11:25:00,
2013-02-27 06:30:00,56.1,54.7,29.88,WSW,253,0.0,0.0,95,0.00,,,0.00,Wunderground v.1.15,2013-02-27 11:30:00,
2013-02-27 06:40:00,55.8,54.4,29.88,WSW,253,0.0,0.0,95,0.00,,,0.00,Wunderground v.1.15,2013-02-27 11:40:00,
2013-02-27 06:50:00,55.5,54.1,29.88,WSW,253,0.0,0.0,95,0.00,,,0.00,Wunderground v.1.15,2013-02-27 11:50:00,
2013-02-27 07:00:00,55.1,53.7,29.89,WSW,253,0.0,0.0,95,0.00,,,0.00,Wunderground v.1.15,2013-02-27 12:00:00,
2013-02-27 07:05:00,54.8,53.4,29.89,WSW,253,0.0,0.0,95,0.00,,,0.00,Wunderground v.1.15,2013-02-27 12:05:00,
2013-02-27 07:10:00,54.5,53.1,29.89,WSW,253,0.0,0.0,95,0.00,,,0.00,Wunderground v.1.15,2013-02-27 12:10:00,
2013-02-27 07:15:00,54.4,53.0,29.89,WSW,253,0.0,0.0,95,0.00,,,0.00,Wunderground v.1.15,2013-02-27 12:15:00,
2013-02-27 07:20:00,54.4,53.0,29.89,WSW,253,0.0,0.0,95,0.00,,,0.00,Wunderground v.1.15,2013-02-27 12:20:00,
2013-02-27 07:25:00,54.6,53.2,29.89,WSW,253,0.0,0.0,95,0.00,,,0.00,Wunderground v.1.15,2013-02-27 12:25:00,
2013-02-27 07:30:00,54.9,53.5,29.90,WSW,253,0.0,0.0,95,0.00,,,0.00,Wunderground v.1.15,2013-02-27 12:30:00,
2013-02-27 07:40:00,56.4,55.0,29.90,WSW,254,0.0,0.0,95,0.00,,,0.00,Wunderground v.1.15,2013-02-27 12:40:00,
2013-02-27 07:45:00,57.0,55.6,29.90,SW,235,0.0,0.0,95,0.00,,,0.00,Wunderground v.1.15,2013-02-27 12:45:00,
2013-02-27 07:50:00,57.6,56.5,29.91,SW,235,0.0,0.0,96,0.00,,,0.00,Wunderground v.1.15,2013-02-27 12:50:00,
2013-02-27 07:55:00,58.1,57.0,29.91,SW,234,0.0,0.0,96,0.00,,,0.00,Wunderground v.1.15,2013-02-27 12:55:00,
2013-02-27 08:00:00,59.0,57.9,29.91,SW,235,0.0,0.0,96,0.00,,,0.00,Wunderground v.1.15,2013-02-27 13:00:00,
2013-02-27 08:05:00,59.7,58.6,29.91,SW,228,0.0,0.0,96,0.00,,,0.00,Wunderground v.1.15,2013-02-27 13:05:00,
2013-02-27 08:10:00,60.5,59.4,29.92,SW,228,0.0,0.0,96,0.00,,,0.00,Wunderground v.1.15,2013-02-27 13:10:00,
2013-02-27 08:15:00,61.1,60.0,29.92,SW,228,0.0,0.0,96,0.00,,,0.00,Wunderground v.1.15,2013-02-27 13:15:00,
2013-02-27 08:20:00,61.4,60.2,29.92,SW,228,0.0,0.0,96,0.00,,,0.00,Wunderground v.1.15,2013-02-27 13:20:00,
2013-02-27 08:25:00,61.7,60.5,29.92,SW,230,0.0,0.0,96,0.00,,,0.00,Wunderground v.1.15,2013-02-27 13:25:00,
2013-02-27 08:30:00,62.1,60.9,29.92,SW,230,0.0,3.0,96,0.00,,,0.00,Wunderground v.1.15,2013-02-27 13:30:00,
2013-02-27 08:35:00,62.4,61.2,29.92,SW,230,0.0,3.0,96,0.00,,,0.00,Wunderground v.1.15,2013-02-27 13:35:00,
2013-02-27 08:40:00,62.7,61.5,29.92,West,270,0.0,0.0,96,0.00,,,0.00,Wunderground v.1.15,2013-02-27 13:40:00,
2013-02-27 08:45:00,62.6,61.1,29.92,NW,315,2.0,3.0,95,0.00,,,0.00,Wunderground v.1.15,2013-02-27 13:45:00,
2013-02-27 08:50:00,62.7,61.2,29.92,NW,320,4.0,5.0,95,0.00,,,0.00,Wunderground v.1.15,2013-02-27 13:50:00,
2013-02-27 08:55:00,62.9,61.4,29.93,NW,311,4.0,5.0,95,0.00,,,0.00,Wunderground v.1.15,2013-02-27 13:55:00,
2013-02-27 09:00:00,62.9,61.1,29.93,NW,311,3.0,3.0,94,0.00,,,0.00,Wunderground v.1.15,2013-02-27 14:00:00,
2013-02-27 09:05:00,63.0,61.2,29.94,NW,314,3.0,3.0,94,0.00,,,0.00,Wunderground v.1.15,2013-02-27 14:05:00,
2013-02-27 09:10:00,63.4,61.6,29.93,NW,311,3.0,3.0,94,0.00,,,0.00,Wunderground v.1.15,2013-02-27 14:10:00,
2013-02-27 09:15:00,63.6,61.5,29.94,NW,319,3.0,3.0,93,0.00,,,0.00,Wunderground v.1.15,2013-02-27 14:15:00,
2013-02-27 09:20:00,63.8,61.4,29.94,NW,314,3.0,3.0,92,0.00,,,0.00,Wunderground v.1.15,2013-02-27 14:20:00,
2013-02-27 09:30:00,64.3,61.3,29.94,NW,304,3.0,3.0,90,0.00,,,0.00,Wunderground v.1.15,2013-02-27 14:30:00,
2013-02-27 09:35:00,64.2,60.9,29.94,WNW,300,4.0,4.0,89,0.00,,,0.00,Wunderground v.1.15,2013-02-27 14:35:00,
2013-02-27 09:40:00,64.5,61.2,29.94,NW,325,4.0,4.0,89,0.00,,,0.00,Wunderground v.1.15,2013-02-27 14:40:00,
2013-02-27 09:50:00,65.5,61.5,29.94,NNW,333,4.0,4.0,87,0.00,,,0.00,Wunderground v.1.15,2013-02-27 14:50:00,
2013-02-27 09:55:00,65.8,61.8,29.94,NW,322,4.0,6.0,87,0.00,,,0.00,Wunderground v.1.15,2013-02-27 14:55:00,
2013-02-27 10:00:00,65.9,61.3,29.94,NW,321,4.0,5.0,85,0.00,,,0.00,Wunderground v.1.15,2013-02-27 15:00:00,
2013-02-27 10:05:00,65.7,60.7,29.94,NW,309,5.0,6.0,84,0.00,,,0.00,Wunderground v.1.15,2013-02-27 15:05:00,
2013-02-27 10:15:00,65.4,60.1,29.94,WNW,292,5.0,5.0,83,0.00,,,0.00,Wunderground v.1.15,2013-02-27 15:15:00,
2013-02-27 10:20:00,65.7,60.4,29.94,WNW,287,4.0,6.0,83,0.00,,,0.00,Wunderground v.1.15,2013-02-27 15:20:00,
2013-02-27 10:30:00,65.9,60.2,29.94,WNW,300,5.0,5.0,82,0.00,,,0.00,Wunderground v.1.15,2013-02-27 15:30:00,
2013-02-27 10:35:00,66.0,60.7,29.95,WNW,299,4.0,5.0,83,0.00,,,0.00,Wunderground v.1.15,2013-02-27 15:35:00,
2013-02-27 10:40:00,66.2,60.5,29.95,NW,307,3.0,5.0,82,0.00,,,0.00,Wunderground v.1.15,2013-02-27 15:40:00,
2013-02-27 10:50:00,66.1,60.4,29.95,NW,325,4.0,5.0,82,0.00,,,0.00,Wunderground v.1.15,2013-02-27 15:50:00,
2013-02-27 11:00:00,67.2,60.8,29.94,NW,314,3.0,3.0,80,0.00,,,0.00,Wunderground v.1.15,2013-02-27 16:00:00,
2013-02-27 11:05:00,67.2,60.8,29.94,NW,315,3.0,3.0,80,0.00,,,0.00,Wunderground v.1.15,2013-02-27 16:05:00,
2013-02-27 11:10:00,67.5,61.1,29.94,NW,314,3.0,4.0,80,0.00,,,0.00,Wunderground v.1.15,2013-02-27 16:10:00,
2013-02-27 11:15:00,67.8,61.0,29.94,WNW,296,3.0,4.0,79,0.00,,,0.00,Wunderground v.1.15,2013-02-27 16:15:00,
2013-02-27 11:20:00,68.0,60.9,29.94,WNW,291,2.0,2.0,78,0.00,,,0.00,Wunderground v.1.15,2013-02-27 16:20:00,
2013-02-27 11:25:00,67.9,60.8,29.95,WNW,290,2.0,2.0,78,0.00,,,0.00,Wunderground v.1.15,2013-02-27 16:25:00,
2013-02-27 11:35:00,68.0,60.5,29.94,NNW,345,2.0,4.0,77,0.00,,,0.00,Wunderground v.1.15,2013-02-27 16:35:00,
2013-02-27 11:40:00,68.7,60.8,29.94,NNW,327,3.0,3.0,76,0.00,,,0.00,Wunderground v.1.15,2013-02-27 16:40:00,
2013-02-27 11:45:00,68.6,60.4,29.94,NW,310,3.0,3.0,75,0.00,,,0.00,Wunderground v.1.15,2013-02-27 16:45:00,
2013-02-27 11:55:00,68.9,60.6,29.93,WNW,299,2.0,5.0,75,0.00,,,0.00,Wunderground v.1.15,2013-02-27 16:55:00,
2013-02-27 12:00:00,69.7,61.4,29.93,WNW,291,1.0,7.0,75,0.00,,,0.00,Wunderground v.1.15,2013-02-27 17:00:00,
2013-02-27 12:05:00,70.1,60.7,29.93,WNW,290,2.0,7.0,72,0.00,,,0.00,Wunderground v.1.15,2013-02-27 17:05:00,
2013-02-27 12:15:00,70.3,60.4,29.92,WNW,287,1.0,4.0,71,0.00,,,0.00,Wunderground v.1.15,2013-02-27 17:15:00,
2013-02-27 12:20:00,69.9,60.5,29.92,WNW,285,1.0,1.0,72,0.00,,,0.00,Wunderground v.1.15,2013-02-27 17:20:00,
2013-02-27 12:25:00,69.9,60.8,29.92,WNW,284,1.0,4.0,73,0.00,,,0.00,Wunderground v.1.15,2013-02-27 17:25:00,
2013-02-27 12:30:00,70.3,61.2,29.92,West,271,2.0,3.0,73,0.00,,,0.00,Wunderground v.1.15,2013-02-27 17:30:00,
2013-02-27 12:35:00,70.7,60.4,29.92,West,275,3.0,5.0,70,0.00,,,0.00,Wunderground v.1.15,2013-02-27 17:35:00,
2013-02-27 12:40:00,71.3,60.2,29.92,West,277,3.0,3.0,68,0.00,,,0.00,Wunderground v.1.15,2013-02-27 17:40:00,
2013-02-27 12:45:00,71.7,60.6,29.92,West,273,3.0,4.0,68,0.00,,,0.00,Wunderground v.1.15,2013-02-27 17:45:00,
2013-02-27 12:50:00,72.2,60.6,29.91,West,279,2.0,2.0,67,0.00,,,0.00,Wunderground v.1.15,2013-02-27 17:50:00,
2013-02-27 12:55:00,72.6,61.0,29.91,West,277,2.0,3.0,67,0.00,,,0.00,Wunderground v.1.15,2013-02-27 17:55:00,
2013-02-27 13:00:00,73.1,61.5,29.91,West,275,2.0,2.0,67,0.00,,,0.00,Wunderground v.1.15,2013-02-27 18:00:00,
2013-02-27 13:05:00,73.5,61.4,29.91,West,277,2.0,2.0,66,0.00,,,0.00,Wunderground v.1.15,2013-02-27 18:05:00,
2013-02-27 13:15:00,73.5,61.0,29.91,WSW,245,1.0,3.0,65,0.00,,,0.00,Wunderground v.1.15,2013-02-27 18:15:00,
2013-02-27 13:20:00,73.5,61.4,29.91,WSW,241,2.0,3.0,66,0.00,,,0.00,Wunderground v.1.15,2013-02-27 18:20:00,
2013-02-27 13:25:00,73.6,60.7,29.90,WSW,243,3.0,6.0,64,0.00,,,0.00,Wunderground v.1.15,2013-02-27 18:25:00,
2013-02-27 13:30:00,73.7,60.8,29.90,WSW,243,3.0,3.0,64,0.00,,,0.00,Wunderground v.1.15,2013-02-27 18:30:00,
2013-02-27 13:35:00,73.9,60.1,29.90,West,265,4.0,6.0,62,0.00,,,0.00,Wunderground v.1.15,2013-02-27 18:35:00,
2013-02-27 13:40:00,73.9,60.5,29.89,WSW,253,3.0,3.0,63,0.00,,,0.00,Wunderground v.1.15,2013-02-27 18:40:00,
2013-02-27 13:45:00,73.9,60.5,29.89,WSW,244,2.0,4.0,63,0.00,,,0.00,Wunderground v.1.15,2013-02-27 18:45:00,
2013-02-27 13:50:00,74.0,60.6,29.89,WSW,241,2.0,2.0,63,0.00,,,0.00,Wunderground v.1.15,2013-02-27 18:50:00,
2013-02-27 13:55:00,74.5,61.1,29.89,SW,221,2.0,4.0,63,0.00,,,0.00,Wunderground v.1.15,2013-02-27 18:55:00,
2013-02-27 14:00:00,74.7,59.9,29.88,SW,224,3.0,3.0,60,0.00,,,0.00,Wunderground v.1.15,2013-02-27 19:00:00,
2013-02-27 14:05:00,74.9,59.6,29.88,SW,224,2.0,3.0,59,0.00,,,0.00,Wunderground v.1.15,2013-02-27 19:05:00,
2013-02-27 14:10:00,75.2,61.7,29.88,SSW,213,2.0,2.0,63,0.00,,,0.00,Wunderground v.1.15,2013-02-27 19:10:00,
2013-02-27 14:20:00,75.2,60.4,29.87,South,184,3.0,3.0,60,0.00,,,0.00,Wunderground v.1.15,2013-02-27 19:20:00,
2013-02-27 14:25:00,74.9,60.5,29.86,SW,228,3.0,7.0,61,0.00,,,0.00,Wunderground v.1.15,2013-02-27 19:25:00,
2013-02-27 14:30:00,75.2,60.8,29.86,SSW,203,3.0,3.0,61,0.00,,,0.00,Wunderground v.1.15,2013-02-27 19:30:00,
2013-02-27 14:35:00,75.6,59.3,29.86,SSW,209,3.0,3.0,57,0.00,,,0.00,Wunderground v.1.15,2013-02-27 19:35:00,
2013-02-27 14:40:00,75.7,58.9,29.86,SSW,207,3.0,5.0,56,0.00,,,0.00,Wunderground v.1.15,2013-02-27 19:40:00,
2013-02-27 14:45:00,76.1,59.8,29.86,SSW,207,2.0,5.0,57,0.00,,,0.00,Wunderground v.1.15,2013-02-27 19:45:00,
2013-02-27 14:50:00,76.5,59.1,29.86,SSW,211,3.0,3.0,55,0.00,,,0.00,Wunderground v.1.15,2013-02-27 19:50:00,
2013-02-27 14:55:00,76.6,60.2,29.86,SSW,205,3.0,6.0,57,0.00,,,0.00,Wunderground v.1.15,2013-02-27 19:55:00,
2013-02-27 15:00:00,76.5,59.6,29.86,SSW,198,3.0,4.0,56,0.00,,,0.00,Wunderground v.1.15,2013-02-27 20:00:00,
2013-02-27 15:05:00,76.4,59.5,29.86,South,188,4.0,4.0,56,0.00,,,0.00,Wunderground v.1.15,2013-02-27 20:05:00,
2013-02-27 15:10:00,76.2,59.4,29.86,South,190,4.0,4.0,56,0.00,,,0.00,Wunderground v.1.15,2013-02-27 20:10:00,
2013-02-27 15:15:00,76.4,59.5,29.85,South,190,2.0,4.0,56,0.00,,,0.00,Wunderground v.1.15,2013-02-27 20:15:00,
2013-02-27 15:20:00,77.0,59.6,29.86,SSW,202,1.0,5.0,55,0.00,,,0.00,Wunderground v.1.15,2013-02-27 20:20:00,
2013-02-27 15:25:00,76.8,59.9,29.86,SSE,163,3.0,6.0,56,0.00,,,0.00,Wunderground v.1.15,2013-02-27 20:25:00,
2013-02-27 15:30:00,76.3,59.4,29.86,SSE,168,4.0,4.0,56,0.00,,,0.00,Wunderground v.1.15,2013-02-27 20:30:00,
2013-02-27 15:35:00,76.3,58.9,29.86,South,190,4.0,4.0,55,0.00,,,0.00,Wunderground v.1.15,2013-02-27 20:35:00,
2013-02-27 15:40:00,76.7,58.8,29.86,South,190,3.0,3.0,54,0.00,,,0.00,Wunderground v.1.15,2013-02-27 20:40:00,
2013-02-27 15:50:00,77.5,59.0,29.85,SSW,207,2.0,2.0,53,0.00,,,0.00,Wunderground v.1.15,2013-02-27 20:50:00,
2013-02-27 15:55:00,77.7,58.7,29.86,SW,227,3.0,3.0,52,0.00,,,0.00,Wunderground v.1.15,2013-02-27 20:55:00,
2013-02-27 16:00:00,77.7,58.7,29.86,SSW,209,3.0,3.0,52,0.00,,,0.00,Wunderground v.1.15,2013-02-27 21:00:00,
2013-02-27 16:05:00,78.0,58.9,29.86,SSW,210,3.0,3.0,52,0.00,,,0.00,Wunderground v.1.15,2013-02-27 21:05:00,
2013-02-27 16:10:00,78.2,58.6,29.86,SW,235,2.0,2.0,51,0.00,,,0.00,Wunderground v.1.15,2013-02-27 21:10:00,
2013-02-27 16:15:00,77.7,58.7,29.86,SSW,207,3.0,5.0,52,0.00,,,0.00,Wunderground v.1.15,2013-02-27 21:15:00,
2013-02-27 16:20:00,77.0,57.5,29.86,WSW,238,4.0,4.0,51,0.00,,,0.00,Wunderground v.1.15,2013-02-27 21:20:00,
2013-02-27 16:25:00,76.3,57.4,29.86,SW,226,2.0,4.0,52,0.00,,,0.00,Wunderground v.1.15,2013-02-27 21:25:00,
2013-02-27 16:30:00,76.0,57.6,29.86,SW,225,1.0,1.0,53,0.00,,,0.00,Wunderground v.1.15,2013-02-27 21:30:00,
2013-02-27 16:35:00,76.0,57.1,29.86,WSW,240,1.0,1.0,52,0.00,,,0.00,Wunderground v.1.15,2013-02-27 21:35:00,
2013-02-27 16:40:00,76.3,57.4,29.86,WSW,242,1.0,1.0,52,0.00,,,0.00,Wunderground v.1.15,2013-02-27 21:40:00,
2013-02-27 16:45:00,76.5,57.6,29.86,WSW,238,2.0,3.0,52,0.00,,,0.00,Wunderground v.1.15,2013-02-27 21:45:00,
2013-02-27 16:50:00,76.4,57.5,29.86,WSW,238,2.0,2.0,52,0.00,,,0.00,Wunderground v.1.15,2013-02-27 21:50:00,
2013-02-27 16:55:00,76.4,56.9,29.87,WSW,247,2.0,3.0,51,0.00,,,0.00,Wunderground v.1.15,2013-02-27 21:55:00,
2013-02-27 17:00:00,76.1,56.7,29.87,WSW,248,2.0,2.0,51,0.00,,,0.00,Wunderground v.1.15,2013-02-27 22:00:00,
2013-02-27 17:05:00,75.8,56.9,29.87,WSW,250,2.0,3.0,52,0.00,,,0.00,Wunderground v.1.15,2013-02-27 22:05:00,
2013-02-27 17:10:00,75.5,56.6,29.88,West,262,3.0,3.0,52,0.00,,,0.00,Wunderground v.1.15,2013-02-27 22:10:00,
2013-02-27 17:15:00,75.1,56.3,29.87,WSW,245,3.0,3.0,52,0.00,,,0.00,Wunderground v.1.15,2013-02-27 22:15:00,
2013-02-27 17:20:00,74.8,56.5,29.87,WSW,249,2.0,4.0,53,0.00,,,0.00,Wunderground v.1.15,2013-02-27 22:20:00,
2013-02-27 17:25:00,74.5,55.7,29.87,WSW,250,1.0,4.0,52,0.00,,,0.00,Wunderground v.1.15,2013-02-27 22:25:00,
2013-02-27 17:30:00,74.1,55.9,29.87,WSW,257,1.0,1.0,53,0.00,,,0.00,Wunderground v.1.15,2013-02-27 22:30:00,
2013-02-27 17:35:00,73.8,56.1,29.87,West,260,1.0,3.0,54,0.00,,,0.00,Wunderground v.1.15,2013-02-27 22:35:00,
2013-02-27 17:40:00,73.5,55.8,29.87,West,260,1.0,4.0,54,0.00,,,0.00,Wunderground v.1.15,2013-02-27 22:40:00,
2013-02-27 17:45:00,73.1,56.0,29.87,West,263,1.0,4.0,55,0.00,,,0.00,Wunderground v.1.15,2013-02-27 22:45:00,
2013-02-27 17:50:00,72.6,55.0,29.88,West,263,1.0,1.0,54,0.00,,,0.00,Wunderground v.1.15,2013-02-27 22:50:00,
2013-02-27 17:55:00,72.0,55.4,29.88,West,263,1.0,1.0,56,0.00,,,0.00,Wunderground v.1.15,2013-02-27 22:55:00,
2013-02-27 18:00:00,71.5,55.5,29.88,West,263,1.0,1.0,57,0.00,,,0.00,Wunderground v.1.15,2013-02-27 23:00:00,
2013-02-27 18:05:00,70.7,55.2,29.88,West,279,2.0,2.0,58,0.00,,,0.00,Wunderground v.1.15,2013-02-27 23:05:00,
2013-02-27 18:10:00,70.1,55.1,29.88,West,279,1.0,1.0,59,0.00,,,0.00,Wunderground v.1.15,2013-02-27 23:10:00,
2013-02-27 18:15:00,69.5,55.0,29.88,West,277,0.0,1.0,60,0.00,,,0.00,Wunderground v.1.15,2013-02-27 23:15:00,
2013-02-27 18:20:00,68.9,54.9,29.88,West,279,0.0,0.0,61,0.00,,,0.00,Wunderground v.1.15,2013-02-27 23:20:00,
2013-02-27 18:25:00,68.4,54.9,29.88,West,279,0.0,0.0,62,0.00,,,0.00,Wunderground v.1.15,2013-02-27 23:25:00,
2013-02-27 18:30:00,67.9,54.8,29.89,West,279,1.0,1.0,63,0.00,,,0.00,Wunderground v.1.15,2013-02-27 23:30:00,
2013-02-27 18:35:00,67.4,54.8,29.89,West,279,1.0,1.0,64,0.00,,,0.00,Wunderground v.1.15,2013-02-27 23:35:00,
2013-02-27 18:40:00,67.0,54.4,29.88,West,279,1.0,1.0,64,0.00,,,0.00,Wunderground v.1.15,2013-02-27 23:40:00,
2013-02-27 18:45:00,66.6,54.5,29.89,West,279,0.0,1.0,65,0.00,,,0.00,Wunderground v.1.15,2013-02-27 23:45:00,
2013-02-27 18:50:00,66.2,54.1,29.90,West,279,0.0,0.0,65,0.00,,,0.00,Wunderground v.1.15,2013-02-27 23:50:00,
2013-02-27 18:55:00,65.9,54.2,29.90,West,279,1.0,1.0,66,0.00,,,0.00,Wunderground v.1.15,2013-02-27 23:55:00,
2013-02-27 19:00:00,65.6,53.9,29.90,West,279,1.0,1.0,66,0.00,,,0.00,Wunderground v.1.15,2013-02-28 00:00:00,
2013-02-27 19:05:00,65.2,54.0,29.90,West,279,0.0,1.0,67,0.00,,,0.00,Wunderground v.1.15,2013-02-28 00:05:00,
2013-02-27 19:15:00,64.5,53.7,29.90,West,279,1.0,3.0,68,0.00,,,0.00,Wunderground v.1.15,2013-02-28 00:15:00,
2013-02-27 19:20:00,64.2,53.8,29.90,West,279,1.0,1.0,69,0.00,,,0.00,Wunderground v.1.15,2013-02-28 00:20:00,
2013-02-27 19:25:00,64.0,53.6,29.91,West,279,1.0,1.0,69,0.00,,,0.00,Wunderground v.1.15,2013-02-28 00:25:00,
2013-02-27 19:30:00,63.7,53.7,29.90,West,280,1.0,1.0,70,0.00,,,0.00,Wunderground v.1.15,2013-02-28 00:30:00,
2013-02-27 19:35:00,63.4,53.4,29.91,West,279,2.0,3.0,70,0.00,,,0.00,Wunderground v.1.15,2013-02-28 00:35:00,
2013-02-27 19:40:00,63.1,53.5,29.91,West,279,1.0,1.0,71,0.00,,,0.00,Wunderground v.1.15,2013-02-28 00:40:00,
2013-02-27 19:45:00,62.8,53.3,29.91,West,279,1.0,3.0,71,0.00,,,0.00,Wunderground v.1.15,2013-02-28 00:45:00,
2013-02-27 19:50:00,62.5,53.0,29.91,West,279,1.0,1.0,71,0.00,,,0.00,Wunderground v.1.15,2013-02-28 00:50:00,
2013-02-27 19:55:00,62.2,53.1,29.91,West,279,1.0,1.0,72,0.00,,,0.00,Wunderground v.1.15,2013-02-28 00:55:00,
2013-02-27 20:00:00,62.0,52.9,29.91,West,279,0.0,0.0,72,0.00,,,0.00,Wunderground v.1.15,2013-02-28 01:00:00,
2013-02-27 20:05:00,61.7,52.6,29.92,West,279,0.0,0.0,72,0.00,,,0.00,Wunderground v.1.15,2013-02-28 01:05:00,
2013-02-27 20:10:00,61.4,52.7,29.92,West,279,0.0,0.0,73,0.00,,,0.00,Wunderground v.1.15,2013-02-28 01:10:00,
2013-02-27 20:15:00,61.1,52.4,29.91,West,279,1.0,4.0,73,0.00,,,0.00,Wunderground v.1.15,2013-02-28 01:15:00,
2013-02-27 20:20:00,60.8,52.5,29.91,West,279,1.0,1.0,74,0.00,,,0.00,Wunderground v.1.15,2013-02-28 01:20:00,
2013-02-27 20:25:00,60.5,52.2,29.92,West,279,1.0,1.0,74,0.00,,,0.00,Wunderground v.1.15,2013-02-28 01:25:00,
2013-02-27 20:30:00,60.3,52.3,29.92,West,279,0.0,2.0,75,0.00,,,0.00,Wunderground v.1.15,2013-02-28 01:30:00,
2013-02-27 20:35:00,60.0,52.1,29.92,West,279,0.0,2.0,75,0.00,,,0.00,Wunderground v.1.15,2013-02-28 01:35:00,
2013-02-27 20:40:00,59.7,51.8,29.92,West,279,0.0,0.0,75,0.00,,,0.00,Wunderground v.1.15,2013-02-28 01:40:00,
2013-02-27 20:45:00,59.4,51.5,29.92,West,279,0.0,0.0,75,0.00,,,0.00,Wunderground v.1.15,2013-02-28 01:45:00,
2013-02-27 20:50:00,59.0,51.4,29.92,West,279,0.0,0.0,76,0.00,,,0.00,Wunderground v.1.15,2013-02-28 01:50:00,
2013-02-27 20:55:00,59.0,51.4,29.92,West,279,0.0,0.0,76,0.00,,,0.00,Wunderground v.1.15,2013-02-28 01:55:00,
2013-02-27 21:00:00,58.7,51.5,29.92,West,279,0.0,0.0,77,0.00,,,0.00,Wunderground v.1.15,2013-02-28 02:00:00,
2013-02-27 21:05:00,58.5,51.3,29.93,West,279,0.0,0.0,77,0.00,,,0.00,Wunderground v.1.15,2013-02-28 02:05:00,
2013-02-27 21:10:00,58.2,51.0,29.93,West,279,0.0,0.0,77,0.00,,,0.00,Wunderground v.1.15,2013-02-28 02:10:00,
2013-02-27 21:15:00,58.1,51.3,29.93,West,279,0.0,0.0,78,0.00,,,0.00,Wunderground v.1.15,2013-02-28 02:15:00,
2013-02-27 21:20:00,57.8,51.0,29.93,West,279,0.0,0.0,78,0.00,,,0.00,Wunderground v.1.15,2013-02-28 02:20:00,
2013-02-27 21:30:00,57.4,50.6,29.94,West,279,0.0,0.0,78,0.00,,,0.00,Wunderground v.1.15,2013-02-28 02:30:00,
2013-02-27 21:35:00,57.1,50.3,29.94,West,279,0.0,0.0,78,0.00,,,0.00,Wunderground v.1.15,2013-02-28 02:35:00,
2013-02-27 21:40:00,56.8,50.0,29.94,West,279,0.0,0.0,78,0.00,,,0.00,Wunderground v.1.15,2013-02-28 02:40:00,
2013-02-27 21:45:00,56.5,50.1,29.94,West,279,0.0,0.0,79,0.00,,,0.00,Wunderground v.1.15,2013-02-28 02:45:00,
2013-02-27 21:50:00,56.3,50.2,29.93,West,279,0.0,0.0,80,0.00,,,0.00,Wunderground v.1.15,2013-02-28 02:50:00,
2013-02-27 21:55:00,56.2,50.1,29.93,West,279,0.0,0.0,80,0.00,,,0.00,Wunderground v.1.15,2013-02-28 02:55:00,
2013-02-27 22:00:00,56.1,50.3,29.94,West,279,0.0,0.0,81,0.00,,,0.00,Wunderground v.1.15,2013-02-28 03:00:00,
2013-02-27 22:05:00,56.1,50.3,29.93,West,279,0.0,0.0,81,0.00,,,0.00,Wunderground v.1.15,2013-02-28 03:05:00,
2013-02-27 22:10:00,56.1,50.3,29.93,West,279,0.0,0.0,81,0.00,,,0.00,Wunderground v.1.15,2013-02-28 03:10:00,
2013-02-27 22:15:00,56.0,50.3,29.94,West,279,0.0,0.0,81,0.00,,,0.00,Wunderground v.1.15,2013-02-28 03:15:00,
2013-02-27 22:20:00,56.0,50.3,29.94,West,279,0.0,0.0,81,0.00,,,0.00,Wunderground v.1.15,2013-02-28 03:20:00,
2013-02-27 22:25:00,55.9,50.2,29.94,West,279,0.0,0.0,81,0.00,,,0.00,Wunderground v.1.15,2013-02-28 03:25:00,
2013-02-27 22:30:00,55.8,50.4,29.94,West,279,0.0,0.0,82,0.00,,,0.00,Wunderground v.1.15,2013-02-28 03:30:00,
2013-02-27 22:35:00,55.7,50.3,29.94,West,279,0.0,0.0,82,0.00,,,0.00,Wunderground v.1.15,2013-02-28 03:35:00,
2013-02-27 22:40:00,55.5,50.1,29.94,West,279,0.0,0.0,82,0.00,,,0.00,Wunderground v.1.15,2013-02-28 03:40:00,
2013-02-27 22:45:00,55.3,49.9,29.95,West,279,0.0,1.0,82,0.00,,,0.00,Wunderground v.1.15,2013-02-28 03:45:00,
2013-02-27 22:50:00,55.1,49.7,29.94,West,279,0.0,0.0,82,0.00,,,0.00,Wunderground v.1.15,2013-02-28 03:50:00,
2013-02-27 22:55:00,54.9,49.5,29.94,West,279,0.0,0.0,82,0.00,,,0.00,Wunderground v.1.15,2013-02-28 03:55:00,
2013-02-27 23:00:00,54.6,49.2,29.94,West,279,0.0,0.0,82,0.00,,,0.00,Wunderground v.1.15,2013-02-28 04:00:00,
2013-02-27 23:05:00,54.3,48.9,29.94,West,279,0.0,0.0,82,0.00,,,0.00,Wunderground v.1.15,2013-02-28 04:05:00,
2013-02-27 23:15:00,53.8,48.8,29.94,West,279,0.0,0.0,83,0.00,,,0.00,Wunderground v.1.15,2013-02-28 04:15:00,
2013-02-27 23:20:00,53.5,48.5,29.94,West,279,0.0,0.0,83,0.00,,,0.00,Wunderground v.1.15,2013-02-28 04:20:00,
2013-02-27 23:25:00,53.2,48.2,29.95,West,279,0.0,0.0,83,0.00,,,0.00,Wunderground v.1.15,2013-02-28 04:25:00,
2013-02-27 23:30:00,52.9,47.9,29.95,West,279,0.0,0.0,83,0.00,,,0.00,Wunderground v.1.15,2013-02-28 04:30:00,
2013-02-27 23:35:00,52.7,48.0,29.94,West,279,0.0,0.0,84,0.00,,,0.00,Wunderground v.1.15,2013-02-28 04:35:00,
2013-02-27 23:40:00,52.7,48.0,29.94,West,279,0.0,0.0,84,0.00,,,0.00,Wunderground v.1.15,2013-02-28 04:40:00,
2013-02-27 23:45:00,52.6,47.9,29.94,West,279,0.0,0.0,84,0.00,,,0.00,Wunderground v.1.15,2013-02-28 04:45:00,
2013-02-27 23:50:00,52.4,48.0,29.94,West,279,0.0,0.0,85,0.00,,,0.00,Wunderground v.1.15,2013-02-28 04:50:00,
2013-02-27 23:55:00,52.3,47.9,29.94,West,279,0.0,0.0,85,0.00,,,0.00,Wunderground v.1.15,2013-02-28 04:55:00,